^^
B2 Weather Station Historical Data
Daily Summary for December 6, 2018 Units:  English    Metric   Both
Daily Weekly Monthly Yearly Custom
  High: Low: Average:
Temperature: 31.1 °F 19.9 °F 27.2 °F
Dew Point: 28.1 °F 15.6 °F 21.9 °F
Humidity: 92% 66% 80%
Wind Speed: 13.8mph 0mph 6.6mph
Wind Gust: 8mph - -
Wind- - NW
Pressure: 30.49 in 30.14 in -
Precipitation: 0 in    
Historical Graphs
 
 
Tabular Data for December 6, 2018
Time Temperature Dew Point Pressure Wind Wind Speed Wind Gust Humidity Rainfall Rate (Hourly) solar
00:04 29 °F 27 °F 30.18 in South 4.6 mph 1.3 mph 92% 0 in 0.00 W/m2
00:09 29 °F 27 °F 30.17 in SSW 4.6 mph 2.4 mph 92% 0 in 0.00 W/m2
00:14 29.2 °F 27.2 °F 30.17 in SW 4.6 mph 3 mph 92% 0 in 0.00 W/m2
00:19 29.3 °F 27.3 °F 30.17 in SSW 6.9 mph 3.5 mph 92% 0 in 0.00 W/m2
00:24 29.5 °F 27.5 °F 30.17 in SSW 6.9 mph 4 mph 92% 0 in 0.00 W/m2
00:29 29.6 °F 27.6 °F 30.17 in South 4.6 mph 3.1 mph 92% 0 in 0.00 W/m2
00:34 29.6 °F 27.6 °F 30.16 in SSW 5.8 mph 2.5 mph 92% 0 in 0.00 W/m2
00:39 29.6 °F 27.6 °F 30.16 in SSW 3.5 mph 2 mph 92% 0 in 0.00 W/m2
00:44 29.5 °F 27.5 °F 30.16 in SSW 4.6 mph 2.3 mph 92% 0 in 0.00 W/m2
00:49 29.6 °F 27.6 °F 30.16 in South 4 mph 2.9 mph 92% 0 in 0.00 W/m2
00:54 29.7 °F 27.7 °F 30.16 in SSW 5.8 mph 4.2 mph 92% 0 in 0.00 W/m2
00:59 29.8 °F 27.8 °F 30.15 in SSW 4.6 mph 2.7 mph 92% 0 in 0.00 W/m2
01:04 29.9 °F 27.6 °F 30.15 in WSW 4.6 mph 3.1 mph 91% 0 in 0.00 W/m2
01:09 29.9 °F 27.9 °F 30.15 in SSW 5.8 mph 1.1 mph 92% 0 in 0.00 W/m2
01:14 29.9 °F 27.6 °F 30.15 in SSW 5 mph 2.9 mph 91% 0 in 0.00 W/m2
01:19 30 °F 27.7 °F 30.15 in South 8.1 mph 4 mph 91% 0 in 0.00 W/m2
01:24 30.1 °F 27.8 °F 30.15 in South 5.8 mph 2 mph 91% 0 in 0.00 W/m2
01:29 30.2 °F 27.9 °F 30.15 in South 6.9 mph 2.7 mph 91% 0 in 0.00 W/m2
01:34 30.3 °F 28 °F 30.15 in SW 9.2 mph 3.2 mph 91% 0 in 0.00 W/m2
01:39 30.3 °F 28 °F 30.14 in South 6.9 mph 5 mph 91% 0 in 0.00 W/m2
01:43 30.4 °F 28.1 °F 30.14 in SSW 6.9 mph 3.9 mph 91% 0 in 0.00 W/m2
07:44 31.1 °F 27.4 °F 30.18 in NW 8.1 mph 4.3 mph 86% 0 in 14.00 W/m2
07:49 31 °F 27.3 °F 30.18 in NW 8.1 mph 3.9 mph 86% 0 in 14.00 W/m2
07:54 30.8 °F 27.1 °F 30.18 in WNW 6.9 mph 4.2 mph 86% 0 in 11.00 W/m2
07:59 30.7 °F 27.3 °F 30.19 in NW 11.5 mph 4.8 mph 87% 0 in 18.00 W/m2
08:04 30.7 °F 27.3 °F 30.19 in NW 8.1 mph 6.5 mph 87% 0 in 25.00 W/m2
08:09 30.6 °F 27.2 °F 30.20 in WNW 5.8 mph 4.8 mph 87% 0 in 32.00 W/m2
08:14 30.6 °F 27.2 °F 30.20 in NW 11.5 mph 6.6 mph 87% 0 in 40.00 W/m2
08:19 30.6 °F 27.2 °F 30.20 in NW 6.9 mph 4.5 mph 87% 0 in 46.00 W/m2
08:24 30.6 °F 27.2 °F 30.21 in NNW 8.1 mph 5 mph 87% 0 in 51.00 W/m2
08:29 30.6 °F 27.2 °F 30.21 in NW 8.1 mph 3.9 mph 87% 0 in 62.00 W/m2
08:34 30.6 °F 27.2 °F 30.21 in WNW 6.9 mph 2.1 mph 87% 0 in 63.00 W/m2
08:39 30.6 °F 27.2 °F 30.22 in WSW 4.6 mph 1.3 mph 87% 0 in 62.00 W/m2
08:44 30.7 °F 27.3 °F 30.22 in WNW 4.6 mph 2 mph 87% 0 in 58.00 W/m2
08:49 30.7 °F 27.3 °F 30.23 in WNW 8.1 mph 6.7 mph 87% 0 in 62.00 W/m2
08:54 30.7 °F 27.3 °F 30.23 in NW 5 mph 3.9 mph 87% 0 in 69.00 W/m2
08:59 30.7 °F 27.3 °F 30.23 in West 10 mph 5.9 mph 87% 0 in 70.00 W/m2
09:04 30.7 °F 27.3 °F 30.23 in WNW 10.4 mph 3.7 mph 87% 0 in 69.00 W/m2
09:09 30.7 °F 27.3 °F 30.23 in NNW 7 mph 5.5 mph 87% 0 in 67.00 W/m2
09:14 30.7 °F 27 °F 30.23 in North 11 mph 7.5 mph 86% 0 in 79.00 W/m2
09:19 30.7 °F 27 °F 30.23 in NW 10.4 mph 4.9 mph 86% 0 in 74.00 W/m2
09:24 30.7 °F 27 °F 30.24 in NW 8.1 mph 5.7 mph 86% 0 in 72.00 W/m2
09:29 30.7 °F 27 °F 30.24 in WNW 11.5 mph 5 mph 86% 0 in 88.00 W/m2
09:34 30.7 °F 27 °F 30.24 in WNW 10.4 mph 4.4 mph 86% 0 in 84.00 W/m2
09:39 30.7 °F 27 °F 30.24 in WNW 10.4 mph 6.6 mph 86% 0 in 74.00 W/m2
09:44 30.7 °F 26.7 °F 30.24 in NW 6.9 mph 4.6 mph 85% 0 in 72.00 W/m2
09:49 30.7 °F 26.7 °F 30.25 in NW 5 mph 6.5 mph 85% 0 in 81.00 W/m2
09:54 30.7 °F 26.7 °F 30.25 in WNW 9.2 mph 5.2 mph 85% 0 in 81.00 W/m2
09:59 30.7 °F 26.7 °F 30.25 in NW 8.1 mph 3.4 mph 85% 0 in 79.00 W/m2
10:04 30.7 °F 26.7 °F 30.25 in WNW 9.2 mph 5.6 mph 85% 0 in 81.00 W/m2
10:09 30.7 °F 26.4 °F 30.25 in NNW 11.5 mph 5.5 mph 84% 0 in 77.00 W/m2
10:14 30.7 °F 26.4 °F 30.26 in NW 9.2 mph 6.7 mph 84% 0 in 77.00 W/m2
10:19 30.6 °F 26.1 °F 30.26 in North 9.2 mph 5.3 mph 83% 0 in 81.00 W/m2
10:24 30.7 °F 26.1 °F 30.26 in NNW 11.5 mph 6.3 mph 83% 0 in 83.00 W/m2
10:29 30.6 °F 25.8 °F 30.26 in WNW 9.2 mph 3.9 mph 82% 0 in 79.00 W/m2
10:34 30.6 °F 25.5 °F 30.26 in NW 6.9 mph 5.4 mph 81% 0 in 90.00 W/m2
10:39 30.6 °F 25.5 °F 30.26 in NW 5.8 mph 3.8 mph 81% 0 in 76.00 W/m2
10:44 30.6 °F 25.2 °F 30.26 in NW 10.4 mph 6.4 mph 80% 0 in 81.00 W/m2
10:49 30.4 °F 24.7 °F 30.26 in NNW 6.9 mph 4.2 mph 79% 0 in 88.00 W/m2
10:54 30.4 °F 25 °F 30.27 in NW 9.2 mph 4.2 mph 80% 0 in 91.00 W/m2
10:59 30.3 °F 24.6 °F 30.27 in WNW 10.4 mph 5.2 mph 79% 0 in 98.00 W/m2
11:04 30.3 °F 24.3 °F 30.27 in NW 9.2 mph 5.2 mph 78% 0 in 91.00 W/m2
11:09 30.3 °F 24.3 °F 30.27 in North 10.4 mph 6.9 mph 78% 0 in 93.00 W/m2
11:14 30.2 °F 24.2 °F 30.26 in NNW 11.5 mph 7.7 mph 78% 0 in 105.00 W/m2
11:19 30.2 °F 24.2 °F 30.27 in NNW 11.5 mph 6.8 mph 78% 0 in 111.00 W/m2
11:24 30.1 °F 24.1 °F 30.27 in NW 9.2 mph 4.8 mph 78% 0 in 105.00 W/m2
11:29 30.1 °F 23.8 °F 30.27 in NW 9.2 mph 6.6 mph 77% 0 in 100.00 W/m2
11:34 30.1 °F 23.8 °F 30.26 in NW 9.2 mph 5.8 mph 77% 0 in 114.00 W/m2
11:39 30.2 °F 23.9 °F 30.26 in North 9.2 mph 6.8 mph 77% 0 in 130.00 W/m2
11:44 30.2 °F 24.2 °F 30.27 in WNW 8.1 mph 4.6 mph 78% 0 in 146.00 W/m2
11:49 30.2 °F 23.9 °F 30.27 in North 8.1 mph 6.4 mph 77% 0 in 153.00 W/m2
11:54 30.2 °F 23.9 °F 30.27 in North 11.5 mph 6 mph 77% 0 in 163.00 W/m2
11:59 30.3 °F 24 °F 30.27 in NW 11.5 mph 7.5 mph 77% 0 in 195.00 W/m2
12:04 30.3 °F 24 °F 30.27 in NNW 12.7 mph 6 mph 77% 0 in 178.00 W/m2
12:09 30.5 °F 24.1 °F 30.27 in NW 11.5 mph 5.7 mph 77% 0 in 200.00 W/m2
12:14 30.6 °F 24.2 °F 30.27 in NNW 10.4 mph 5.3 mph 77% 0 in 202.00 W/m2
12:19 30.6 °F 24.2 °F 30.27 in North 6.9 mph 6.5 mph 77% 0 in 188.00 W/m2
12:24 30.6 °F 24.2 °F 30.27 in NW 8.1 mph 7.8 mph 77% 0 in 202.00 W/m2
12:29 30.5 °F 24.1 °F 30.27 in NW 9.2 mph 5.8 mph 77% 0 in 211.00 W/m2
12:34 30.4 °F 24.1 °F 30.27 in NW 11.5 mph 4.5 mph 77% 0 in 207.00 W/m2
12:39 30.3 °F 24 °F 30.27 in NNW 11.5 mph 5.9 mph 77% 0 in 236.00 W/m2
12:44 30.3 °F 24 °F 30.27 in North 10.4 mph 6.3 mph 77% 0 in 209.00 W/m2
12:49 30.1 °F 23.8 °F 30.27 in NW 10.4 mph 5.6 mph 77% 0 in 255.00 W/m2
12:54 30.1 °F 24.1 °F 30.28 in NW 9.2 mph 6.3 mph 78% 0 in 204.00 W/m2
12:59 29.9 °F 23.6 °F 30.27 in North 11.5 mph 5.4 mph 77% 0 in 151.00 W/m2
13:04 29.6 °F 23 °F 30.27 in NNW 11.5 mph 8 mph 76% 0 in 232.00 W/m2
13:09 29.6 °F 23 °F 30.28 in NW 11.5 mph 4.7 mph 76% 0 in 339.00 W/m2
13:14 29.9 °F 23.3 °F 30.28 in North 9.2 mph 6.6 mph 76% 0 in 462.00 W/m2
13:19 30.2 °F 23.2 °F 30.28 in WNW 10.4 mph 7.4 mph 75% 0 in 229.00 W/m2
13:24 29.8 °F 22.5 °F 30.28 in North 10.4 mph 6.7 mph 74% 0 in 392.00 W/m2
13:29 30 °F 22.4 °F 30.28 in NW 11.5 mph 6.9 mph 73% 0 in 394.00 W/m2
13:34 29.9 °F 22 °F 30.28 in NW 9.2 mph 8 mph 72% 0 in 390.00 W/m2
13:39 29.9 °F 21.3 °F 30.28 in NW 10.4 mph 5.5 mph 70% 0 in 374.00 W/m2
13:44 30.2 °F 21.2 °F 30.28 in NW 11.5 mph 7 mph 69% 0 in 362.00 W/m2
13:49 30.4 °F 21.4 °F 30.28 in NW 8.1 mph 6.7 mph 69% 0 in 353.00 W/m2
13:54 30.4 °F 21.4 °F 30.28 in NNW 8.1 mph 5.9 mph 69% 0 in 345.00 W/m2
13:59 30.3 °F 21 °F 30.28 in NW 10.4 mph 4.6 mph 68% 0 in 334.00 W/m2
14:04 30.1 °F 20.8 °F 30.29 in North 13.8 mph 7.3 mph 68% 0 in 323.00 W/m2
14:09 30 °F 20.4 °F 30.29 in NW 9.2 mph 4.5 mph 67% 0 in 315.00 W/m2
14:14 29.9 °F 19.9 °F 30.29 in North 11.5 mph 6.8 mph 66% 0 in 304.00 W/m2
14:19 30 °F 20.4 °F 30.29 in NNW 9.2 mph 6.9 mph 67% 0 in 292.00 W/m2
14:24 30.1 °F 20.5 °F 30.29 in WNW 11.5 mph 7.6 mph 67% 0 in 279.00 W/m2
14:29 30.1 °F 20.5 °F 30.29 in WNW 9.2 mph 7.4 mph 67% 0 in 265.00 W/m2
14:34 30.2 °F 20.2 °F 30.30 in North 9.2 mph 6.2 mph 66% 0 in 250.00 W/m2
14:39 30 °F 20.4 °F 30.30 in West 8.1 mph 4.3 mph 67% 0 in 236.00 W/m2
14:44 30 °F 20.4 °F 30.30 in NNW 10.4 mph 6.1 mph 67% 0 in 221.00 W/m2
14:49 30 °F 20.4 °F 30.30 in NW 12.7 mph 6.3 mph 67% 0 in 204.00 W/m2
14:54 30 °F 21.1 °F 30.31 in North 10.4 mph 5.8 mph 69% 0 in 186.00 W/m2
14:59 30 °F 21.1 °F 30.31 in NNW 9.2 mph 6.2 mph 69% 0 in 171.00 W/m2
15:04 29.9 °F 21 °F 30.31 in North 10.4 mph 4.9 mph 69% 0 in 153.00 W/m2
15:09 29.8 °F 21.2 °F 30.31 in NW 11.5 mph 5.3 mph 70% 0 in 137.00 W/m2
15:14 29.9 °F 21.6 °F 30.31 in NNW 9.2 mph 4.4 mph 71% 0 in 121.00 W/m2
15:19 30 °F 22.1 °F 30.32 in NW 6.9 mph 4.1 mph 72% 0 in 109.00 W/m2
15:24 29.9 °F 21.6 °F 30.32 in NNW 8.1 mph 4.7 mph 71% 0 in 95.00 W/m2
15:29 29.6 °F 20.7 °F 30.32 in NW 10.4 mph 7.6 mph 69% 0 in 56.00 W/m2
15:34 29.4 °F 20.8 °F 30.32 in NW 11.5 mph 5.7 mph 70% 0 in 23.00 W/m2
15:39 29.3 °F 21.1 °F 30.32 in NW 5 mph 3.6 mph 71% 0 in 21.00 W/m2
15:44 29.2 °F 21 °F 30.32 in NW 8.1 mph 5.9 mph 71% 0 in 19.00 W/m2
15:49 29 °F 20.4 °F 30.33 in NW 6.9 mph 5 mph 70% 0 in 18.00 W/m2
15:54 28.8 °F 20.2 °F 30.33 in WNW 11.5 mph 5.1 mph 70% 0 in 16.00 W/m2
15:59 28.7 °F 20.8 °F 30.33 in North 7 mph 3.5 mph 72% 0 in 14.00 W/m2
16:04 28.5 °F 20.6 °F 30.34 in NW 7 mph 4.1 mph 72% 0 in 12.00 W/m2
16:09 28.4 °F 21.2 °F 30.34 in NNW 3.5 mph 1.9 mph 74% 0 in 11.00 W/m2
16:14 28.2 °F 21.3 °F 30.34 in North 8.1 mph 5.2 mph 75% 0 in 9.00 W/m2
16:19 28 °F 21.1 °F 30.34 in North 4.6 mph 3.3 mph 75% 0 in 5.00 W/m2
16:24 27.8 °F 20.9 °F 30.34 in North 6 mph 4.9 mph 75% 0 in 0.00 W/m2
16:29 27.5 °F 20.6 °F 30.35 in WNW 6.9 mph 5.1 mph 75% 0 in 0.00 W/m2
16:34 27.3 °F 20.4 °F 30.35 in North 9.2 mph 4.8 mph 75% 0 in 0.00 W/m2
16:39 27.1 °F 20.5 °F 30.35 in NW 6.9 mph 3.7 mph 76% 0 in 0.00 W/m2
16:44 27 °F 20.7 °F 30.35 in NW 6.9 mph 4.9 mph 77% 0 in 0.00 W/m2
16:49 26.8 °F 20.6 °F 30.35 in WNW 5.8 mph 4.9 mph 77% 0 in 0.00 W/m2
16:54 26.6 °F 20.4 °F 30.36 in North 6 mph 3.6 mph 77% 0 in 0.00 W/m2
16:59 26.5 °F 20.3 °F 30.36 in NW 6.9 mph 3.7 mph 77% 0 in 0.00 W/m2
17:04 26.4 °F 20.5 °F 30.36 in WNW 4.6 mph 2.3 mph 78% 0 in 0.00 W/m2
17:09 26.2 °F 20.3 °F 30.36 in NNW 5 mph 3.3 mph 78% 0 in 0.00 W/m2
17:14 26.1 °F 20.2 °F 30.36 in North 3.5 mph 2.9 mph 78% 0 in 0.00 W/m2
17:19 26 °F 20.1 °F 30.37 in West 4.6 mph 2.8 mph 78% 0 in 0.00 W/m2
17:24 25.9 °F 20.3 °F 30.37 in North 5.8 mph 2.9 mph 79% 0 in 0.00 W/m2
17:29 25.8 °F 20.2 °F 30.37 in NW 5.8 mph 1.7 mph 79% 0 in 0.00 W/m2
17:34 25.7 °F 20.1 °F 30.37 in NNW 6 mph 4.1 mph 79% 0 in 0.00 W/m2
17:39 25.7 °F 19.8 °F 30.38 in North 6.9 mph 3.7 mph 78% 0 in 0.00 W/m2
17:44 25.7 °F 19.8 °F 30.38 in WNW 6.9 mph 4.4 mph 78% 0 in 0.00 W/m2
17:49 25.6 °F 19.7 °F 30.38 in North 6.9 mph 3.2 mph 78% 0 in 0.00 W/m2
17:54 25.5 °F 19.6 °F 30.38 in North 4.6 mph 4.1 mph 78% 0 in 0.00 W/m2
17:59 25.4 °F 19.8 °F 30.38 in NNW 4.6 mph 2.9 mph 79% 0 in 0.00 W/m2
18:04 25.4 °F 19.5 °F 30.39 in North 5.8 mph 3.8 mph 78% 0 in 0.00 W/m2
18:09 25.3 °F 19.4 °F 30.39 in WNW 4 mph 2.3 mph 78% 0 in 0.00 W/m2
18:14 25.3 °F 19.4 °F 30.39 in North 4 mph 2.9 mph 78% 0 in 0.00 W/m2
18:19 25.2 °F 19.3 °F 30.39 in WNW 5.8 mph 2.9 mph 78% 0 in 0.00 W/m2
18:24 25.1 °F 19.2 °F 30.39 in North 5 mph 2.6 mph 78% 0 in 0.00 W/m2
18:29 25 °F 19.4 °F 30.40 in North 4.6 mph 3.4 mph 79% 0 in 0.00 W/m2
18:34 24.9 °F 19.3 °F 30.39 in WNW 5.8 mph 2.4 mph 79% 0 in 0.00 W/m2
18:39 24.8 °F 19.2 °F 30.39 in NNW 4.6 mph 3.2 mph 79% 0 in 0.00 W/m2
18:44 24.8 °F 19.2 °F 30.40 in NW 5.8 mph 2.6 mph 79% 0 in 0.00 W/m2
18:49 24.7 °F 19.1 °F 30.40 in WNW 5.8 mph 2.5 mph 79% 0 in 0.00 W/m2
18:54 24.6 °F 19 °F 30.40 in NNW 5.8 mph 2.8 mph 79% 0 in 0.00 W/m2
18:59 24.5 °F 18.9 °F 30.40 in NW 3.5 mph 1.4 mph 79% 0 in 0.00 W/m2
19:04 24.4 °F 19.1 °F 30.41 in NW 5.8 mph 3.8 mph 80% 0 in 0.00 W/m2
19:09 24.3 °F 19 °F 30.41 in NW 3.5 mph 2.1 mph 80% 0 in 0.00 W/m2
19:14 24.3 °F 19 °F 30.41 in NW 4.6 mph 3.8 mph 80% 0 in 0.00 W/m2
19:19 24.3 °F 19 °F 30.41 in North 5.8 mph 4.3 mph 80% 0 in 0.00 W/m2
19:24 24.2 °F 18.9 °F 30.41 in North 3.5 mph 3.4 mph 80% 0 in 0.00 W/m2
19:29 24.1 °F 18.8 °F 30.41 in North 6.9 mph 4.2 mph 80% 0 in 0.00 W/m2
19:34 24.1 °F 18.8 °F 30.42 in NW 5 mph 3.5 mph 80% 0 in 0.00 W/m2
19:39 24 °F 18.7 °F 30.42 in NW 5.8 mph 5.1 mph 80% 0 in 0.00 W/m2
19:44 23.9 °F 18.9 °F 30.42 in North 5.8 mph 2.9 mph 81% 0 in 0.00 W/m2
19:49 23.8 °F 18.5 °F 30.42 in NW 6 mph 4.7 mph 80% 0 in 0.00 W/m2
19:54 23.8 °F 18.8 °F 30.42 in NW 3.5 mph 3 mph 81% 0 in 0.00 W/m2
19:59 23.6 °F 18.6 °F 30.42 in NW 6.9 mph 3.1 mph 81% 0 in 0.00 W/m2
20:04 23.6 °F 18.6 °F 30.42 in North 5.8 mph 3.5 mph 81% 0 in 0.00 W/m2
20:09 23.5 °F 18.5 °F 30.42 in North 3.5 mph 3.5 mph 81% 0 in 0.00 W/m2
20:14 23.4 °F 18.4 °F 30.42 in WNW 3.5 mph 1.4 mph 81% 0 in 0.00 W/m2
20:19 23.3 °F 18.3 °F 30.43 in WNW 4 mph 2.7 mph 81% 0 in 0.00 W/m2
20:24 23.2 °F 18.2 °F 30.43 in WNW 3.5 mph 2.3 mph 81% 0 in 0.00 W/m2
20:29 23.1 °F 18.1 °F 30.43 in WNW 3.5 mph 0.4 mph 81% 0 in 0.00 W/m2
20:34 22.9 °F 17.9 °F 30.43 in WNW 3.5 mph 0.7 mph 81% 0 in 0.00 W/m2
20:39 22.8 °F 17.8 °F 30.43 in WNW 3.5 mph 2.2 mph 81% 0 in 0.00 W/m2
20:44 22.7 °F 17.7 °F 30.43 in WNW 3.5 mph 1.4 mph 81% 0 in 0.00 W/m2
20:49 22.6 °F 17.9 °F 30.43 in NW 3.5 mph 1.9 mph 82% 0 in 0.00 W/m2
20:54 22.6 °F 17.9 °F 30.44 in WNW 3.5 mph 1.7 mph 82% 0 in 0.00 W/m2
20:59 22.5 °F 17.8 °F 30.44 in WNW 3.5 mph 2.3 mph 82% 0 in 0.00 W/m2
21:04 22.5 °F 17.8 °F 30.44 in NW 3.5 mph 2.4 mph 82% 0 in 0.00 W/m2
21:09 22.4 °F 17.7 °F 30.44 in NNW 5 mph 3.8 mph 82% 0 in 0.00 W/m2
21:14 22.5 °F 17.8 °F 30.44 in NW 6.9 mph 4 mph 82% 0 in 0.00 W/m2
21:19 22.5 °F 17.8 °F 30.44 in NW 6.9 mph 3.8 mph 82% 0 in 0.00 W/m2
21:24 22.4 °F 17.7 °F 30.44 in North 3.5 mph 2.5 mph 82% 0 in 0.00 W/m2
21:29 22.3 °F 17.6 °F 30.44 in NW 3.5 mph 1.8 mph 82% 0 in 0.00 W/m2
21:34 22 °F 17.3 °F 30.44 in NNW 3.5 mph 1.8 mph 82% 0 in 0.00 W/m2
21:39 21.7 °F 17.1 °F 30.44 in NNW 3.5 mph 1.2 mph 82% 0 in 0.00 W/m2
21:44 21.4 °F 17 °F 30.44 in NW 3.5 mph 1.4 mph 83% 0 in 0.00 W/m2
21:49 21.2 °F 16.8 °F 30.44 in NW 3.5 mph 0.9 mph 83% 0 in 0.00 W/m2
21:54 21 °F 16.6 °F 30.45 in NW 2.3 mph 0.3 mph 83% 0 in 0.00 W/m2
21:59 20.9 °F 16.8 °F 30.45 in NW 1 mph 0.3 mph 84% 0 in 0.00 W/m2
22:04 20.8 °F 16.7 °F 30.45 in NW 1.2 mph 0.1 mph 84% 0 in 0.00 W/m2
22:09 20.8 °F 16.7 °F 30.45 in NW 1.2 mph 0.6 mph 84% 0 in 0.00 W/m2
22:14 20.7 °F 16.6 °F 30.46 in NW 2.3 mph   84% 0 in 0.00 W/m2
22:19 20.6 °F 16.5 °F 30.46 in NW 1.2 mph 0.2 mph 84% 0 in 0.00 W/m2
22:24 20.6 °F 16.5 °F 30.46 in NW 1.2 mph   84% 0 in 0.00 W/m2
22:29 20.7 °F 16.6 °F 30.46 in Calm     84% 0 in 0.00 W/m2
22:34 20.7 °F 16.6 °F 30.46 in Calm     84% 0 in 0.00 W/m2
22:39 20.7 °F 16.6 °F 30.47 in NW 1.2 mph 0.1 mph 84% 0 in 0.00 W/m2
22:44 20.7 °F 16.6 °F 30.47 in Calm     84% 0 in 0.00 W/m2
22:49 20.7 °F 16.4 °F 30.47 in NW 1.2 mph 0.1 mph 83% 0 in 0.00 W/m2
22:54 20.7 °F 16.4 °F 30.47 in NW 1.2 mph 0.6 mph 83% 0 in 0.00 W/m2
22:59 20.6 °F 16.3 °F 30.47 in NW 1.2 mph   83% 0 in 0.00 W/m2
23:04 20.6 °F 16.3 °F 30.47 in NW 1.2 mph 1.2 mph 83% 0 in 0.00 W/m2
23:09 20.6 °F 16.3 °F 30.48 in Calm     83% 0 in 0.00 W/m2
23:14 20.6 °F 16 °F 30.48 in Calm   0.2 mph 82% 0 in 0.00 W/m2
23:19 20.5 °F 15.9 °F 30.48 in NW 1.2 mph   82% 0 in 0.00 W/m2
23:24 20.5 °F 15.9 °F 30.48 in NW 1.2 mph   82% 0 in 0.00 W/m2
23:29 20.3 °F 15.7 °F 30.48 in NW 1 mph 0.1 mph 82% 0 in 0.00 W/m2
23:34 20.2 °F 15.6 °F 30.48 in Calm     82% 0 in 0.00 W/m2
23:39 20.2 °F 15.9 °F 30.48 in Calm     83% 0 in 0.00 W/m2
23:44 20.1 °F 15.8 °F 30.48 in NW 2.3 mph 0.5 mph 83% 0 in 0.00 W/m2
23:49 20 °F 15.7 °F 30.49 in NW 2.3 mph 0.6 mph 83% 0 in 0.00 W/m2
23:54 19.9 °F 15.6 °F 30.48 in NW 1.2 mph 0.5 mph 83% 0 in 0.00 W/m2
23:59 19.9 °F 15.6 °F 30.48 in NW 2.3 mph 1 mph 83% 0 in 0.00 W/m2
Bourbonnais, Illinois, USA
Compliments of Weather Underground - 2 mb